FW1981 Weather Reports


Display with metric or nautical units.
time (UTC)temp
F
wind
direction
speed
MPH
gust
MPH
rain 1hr
in
rain 24hr
in
rain mn
in
humidity
%
barometer
mb
20260506232021 47 300 3.0 7.0 0.00 0.00 0.00 88 1018.3
20260506231519 47 200 3.0 7.0 0.00 0.00 0.00 88 1018.4
20260506231016 47 248 2.0 8.0 0.00 0.00 0.00 88 1018.3
20260506230535 47 207 2.0 8.0 0.00 0.00 0.00 88 1018.4
20260506230024 47 122 3.0 10.0 0.00 0.00 0.00 88 1018.4
20260506225521 47 204 3.0 10.0 0.00 0.00 0.00 87 1018.6
20260506225019 47 208 3.0 6.0 0.00 0.00 0.00 87 1018.6
20260506224516 48 214 1.0 6.0 0.00 0.00 0.00 87 1018.6
20260506224025 48 252 2.0 7.0 0.00 0.00 0.00 87 1018.6
20260506223523 48 167 2.0 7.0 0.00 0.00 0.00 87 1018.6
20260506223021 48 271 2.0 7.0 0.00 0.00 0.00 86 1018.4
20260506222530 48 230 3.0 7.0 0.00 0.00 0.00 86 1018.6
20260506222017 48 108 2.0 9.0 0.00 0.00 0.00 85 1018.5
20260506221524 48 226 3.0 9.0 0.00 0.00 0.00 85 1018.5
20260506221023 48 253 2.0 10.0 0.00 0.00 0.00 85 1018.5
20260506220532 48 235 2.0 8.0 0.00 0.00 0.00 85 1018.5
20260506220019 48 236 3.0 10.0 0.00 0.00 0.00 84 1018.4
20260506215517 49 229 3.0 10.0 0.00 0.00 0.00 84 1018.4
20260506215035 49 187 3.0 10.0 0.00 0.00 0.00 83 1018.5
20260506214524 49 136 2.0 13.0 0.00 0.00 0.00 83 1018.4
20260506214021 49 81 4.0 13.0 0.00 0.00 0.00 82 1018.3
20260506213518 50 126 3.0 11.0 0.00 0.00 0.00 82 1018.2
20260506213027 50 231 4.0 11.0 0.00 0.00 0.00 81 1018.3
20260506212525 50 219 4.0 12.0 0.00 0.00 0.00 80 1018.2
20260506212023 51 194 4.0 12.0 0.00 0.00 0.00 80 1018.2
20260506211521 51 137 2.0 7.0 0.00 0.00 0.00 80 1018.3
20260506211024 51 255 2.0 7.0 0.00 0.00 0.00 80 1018.4
20260506210517 51 288 2.0 7.0 0.00 0.00 0.00 79 1018.4
20260506210024 52 203 2.0 9.0 0.00 0.00 0.00 79 1018.6
20260506205523 52 212 3.0 10.0 0.00 0.00 0.00 79 1018.6
20260506205021 52 193 4.0 10.0 0.00 0.00 0.00 78 1018.6
20260506204519 52 166 3.0 12.0 0.00 0.00 0.00 78 1018.5
20260506204028 52 217 4.0 12.0 0.00 0.00 0.00 77 1018.5
20260506203535 53 239 4.0 14.0 0.00 0.00 0.00 76 1018.6
20260506203023 54 158 3.0 12.0 0.00 0.00 0.00 77 1018.7
20260506202532 54 243 4.0 9.0 0.00 0.00 0.00 76 1018.6
20260506202020 54 210 4.0 11.0 0.00 0.00 0.00 76 1018.5
20260506201517 53 241 4.0 11.0 0.00 0.00 0.00 76 1018.6
20260506201024 53 184 4.0 15.0 0.00 0.00 0.00 76 1018.6
20260506200523 53 222 7.0 15.0 0.00 0.00 0.00 76 1018.7
20260506200021 54 283 4.0 11.0 0.00 0.00 0.00 76 1018.7
20260506195519 54 238 4.0 12.0 0.00 0.00 0.00 75 1018.7
20260506195017 54 244 5.0 12.0 0.00 0.00 0.00 76 1018.8
20260506194525 54 229 6.0 12.0 0.00 0.00 0.00 75 1018.9
20260506194023 54 206 6.0 13.0 0.00 0.00 0.00 74 1019.0
20260506193521 55 259 6.0 14.0 0.00 0.00 0.00 75 1018.9
20260506193031 54 224 3.0 11.0 0.00 0.00 0.00 76 1018.9
20260506192517 54 144 3.0 12.0 0.00 0.00 0.00 77 1018.9
20260506192024 54 156 3.0 16.0 0.00 0.00 0.00 78 1019.2
20260506191526 53 263 4.0 16.0 0.00 0.00 0.00 77 1019.2
20260506191024 53 224 5.0 15.0 0.00 0.00 0.00 76 1019.3
20260506190522 54 212 3.0 11.0 0.00 0.00 0.00 76 1019.2
20260506190019 54 199 5.0 12.0 0.00 0.00 0.00 75 1019.2
20260506185517 54 231 4.0 12.0 0.00 0.00 0.00 76 1019.4
20260506185025 54 167 4.0 10.0 0.00 0.00 0.00 75 1019.5
20260506184524 54 209 3.0 16.0 0.00 0.00 0.00 76 1019.7
20260506184022 54 237 5.0 14.0 0.00 0.00 0.00 75 1019.6
20260506183519 54 233 7.0 14.0 0.00 0.00 0.00 75 1019.5
20260506183017 54 264 4.0 16.0 0.00 0.00 0.00 76 1019.6
20260506182524 53 266 7.0 16.0 0.00 0.00 0.00 76 1019.7
20260506182023 54 223 6.0 15.0 0.00 0.00 0.00 75 1019.8
20260506181533 55 238 6.0 15.0 0.00 0.00 0.00 73 1019.8
20260506181030 55 240 5.0 13.0 0.00 0.00 0.00 73 1019.8
20260506180517 56 167 3.0 13.0 0.00 0.00 0.00 74 1019.9
20260506180024 56 205 4.0 16.0 0.00 0.00 0.00 74 1020.0
20260506175523 56 219 5.0 16.0 0.00 0.00 0.00 73 1019.9
20260506175032 55 255 4.0 16.0 0.00 0.00 0.00 75 1019.8
20260506174519 55 236 7.0 16.0 0.00 0.00 0.00 74 1019.8
20260506174017 56 270 5.0 22.0 0.00 0.00 0.00 74 1019.8
20260506173536 56 319 6.0 16.0 0.00 0.00 0.00 73 1019.9
20260506173023 56 241 4.0 17.0 0.00 0.00 0.00 74 1019.7
20260506172521 56 241 5.0 17.0 0.00 0.00 0.00 74 1020.0
20260506172030 56 262 6.0 14.0 0.00 0.00 0.00 74 1019.9
20260506171517 57 251 4.0 14.0 0.00 0.00 0.00 73 1019.8
20260506171025 57 200 4.0 14.0 0.00 0.00 0.00 74 1019.9
20260506170524 56 269 3.0 14.0 0.00 0.00 0.00 76 1019.9
20260506170023 55 227 4.0 11.0 0.00 0.00 0.00 75 1020.0
20260506165519 54 271 5.0 20.0 0.00 0.00 0.00 77 1020.2
20260506165028 54 295 7.0 20.0 0.00 0.00 0.00 76 1020.3
20260506164525 55 269 6.0 16.0 0.00 0.00 0.00 75 1020.1
20260506164023 54 233 6.0 14.0 0.00 0.00 0.00 76 1020.1
20260506163521 55 276 6.0 14.0 0.00 0.00 0.00 75 1020.0
20260506163030 54 230 7.0 16.0 0.00 0.00 0.00 76 1020.0
20260506162517 55 239 7.0 16.0 0.00 0.00 0.00 76 1019.9
20260506162026 55 229 6.0 16.0 0.00 0.00 0.00 75 1020.0
20260506161524 55 66 5.0 16.0 0.00 0.00 0.00 76 1020.2
20260506161024 56 213 7.0 16.0 0.00 0.00 0.00 74 1020.2
20260506160521 56 231 5.0 12.0 0.00 0.00 0.00 74 1020.4
20260506160020 57 280 4.0 11.0 0.00 0.00 0.00 75 1020.4
20260506155536 56 302 4.0 11.0 0.00 0.00 0.00 75 1020.3
20260506155024 56 212 4.0 16.0 0.00 0.00 0.00 76 1020.4
20260506154524 55 219 4.0 16.0 0.00 0.00 0.00 77 1020.5
20260506154022 55 258 4.0 12.0 0.00 0.00 0.00 78 1020.6
20260506153519 54 220 3.0 11.0 0.00 0.00 0.00 79 1020.3
20260506153029 54 191 6.0 11.0 0.00 0.00 0.00 77 1020.4
20260506152525 54 151 3.0 12.0 0.00 0.00 0.00 80 1020.5
20260506152029 53 263 4.0 14.0 0.00 0.00 0.00 80 1020.4
20260506151522 53 293 5.0 14.0 0.00 0.00 0.00 80 1020.5
20260506151020 52 288 3.0 14.0 0.00 0.00 0.00 82 1020.6
20260506150517 52 238 7.0 15.0 0.00 0.00 0.00 80 1020.5
20260506150037 52 243 5.0 12.0 0.00 0.00 0.00 80 1020.5
20260506145535 52 217 4.0 11.0 0.00 0.00 0.00 80 1020.5
20260506145022 52 210 4.0 11.0 0.00 0.00 0.00 80 1020.4
20260506144519 53 205 4.0 12.0 0.00 0.00 0.00 80 1020.5
20260506144022 52 256 5.0 16.0 0.00 0.00 0.00 80 1020.6
20260506143525 52 288 3.0 16.0 0.00 0.00 0.00 80 1020.7
20260506143024 53 244 6.0 12.0 0.00 0.00 0.00 79 1020.6
20260506142521 54 120 6.0 12.0 0.00 0.00 0.00 78 1020.5
20260506142020 54 297 6.0 16.0 0.00 0.00 0.00 79 1020.5
20260506141518 54 173 7.0 16.0 0.00 0.00 0.00 79 1020.4
20260506141036 54 206 3.0 12.0 0.00 0.00 0.00 80 1020.4
20260506140525 53 233 3.0 12.0 0.00 0.00 0.00 80 1020.5
20260506140024 53 329 3.0 12.0 0.00 0.00 0.00 81 1020.6
20260506135525 53 250 4.0 15.0 0.00 0.00 0.00 80 1020.4
20260506135022 53 257 6.0 15.0 0.00 0.00 0.00 80 1020.5
20260506134532 53 240 4.0 12.0 0.00 0.00 0.00 79 1020.4
20260506134017 54 236 3.0 10.0 0.00 0.00 0.00 80 1020.3
20260506133524 54 202 4.0 12.0 0.00 0.00 0.00 80 1020.5
20260506133025 54 205 2.0 14.0 0.00 0.00 0.00 81 1020.3
20260506132536 54 235 4.0 15.0 0.00 0.00 0.00 80 1020.2
20260506132022 54 255 6.0 13.0 0.00 0.00 0.00 80 1020.3
20260506131531 54 127 5.0 13.0 0.00 0.00 0.00 80 1020.3
20260506131018 54 245 4.0 14.0 0.00 0.00 0.00 81 1020.3
20260506130525 54 169 3.0 12.0 0.00 0.00 0.00 81 1020.3
20260506130034 54 328 4.0 12.0 0.00 0.00 0.00 81 1020.4
20260506125522 54 141 2.0 10.0 0.00 0.00 0.00 82 1020.5
20260506125033 53 9 4.0 11.0 0.00 0.00 0.00 81 1020.3
20260506124520 53 56 3.0 11.0 0.00 0.00 0.00 82 1020.2
20260506124018 53 212 3.0 12.0 0.00 0.00 0.00 82 1020.2
20260506123525 52 243 3.0 12.0 0.00 0.00 0.00 83 1020.1
20260506123024 52 346 4.0 11.0 0.00 0.00 0.00 82 1020.1
20260506122522 52 298 2.0 11.0 0.00 0.00 0.00 83 1020.1
20260506122020 52 200 4.0 12.0 0.00 0.00 0.00 83 1020.1
20260506121518 52 217 4.0 12.0 0.00 0.00 0.00 84 1019.9
20260506121025 51 189 5.0 12.0 0.00 0.00 0.00 83 1019.8
20260506120525 52 248 3.0 10.0 0.00 0.00 0.00 84 1019.6
20260506120022 51 245 4.0 11.0 0.00 0.00 0.00 84 1020.0
20260506115523 51 248 3.0 11.0 0.00 0.00 0.00 84 1019.8
20260506115031 52 304 2.0 6.0 0.00 0.00 0.00 84 1020.0
20260506114518 51 259 2.0 8.0 0.00 0.00 0.00 86 1020.0
20260506114025 50 215 2.0 8.0 0.00 0.00 0.00 87 1019.7
20260506113524 50 249 4.0 8.0 0.00 0.00 0.00 87 1019.8
20260506113024 49 328 2.0 9.0 0.00 0.00 0.00 88 1019.9
20260506112524 49 221 3.0 9.0 0.00 0.00 0.00 88 1019.8
20260506112022 49 258 2.0 11.0 0.00 0.00 0.00 89 1019.8
20260506111521 49 250 4.0 11.0 0.00 0.00 0.00 89 1019.7
20260506111021 48 244 1.0 7.0 0.00 0.00 0.00 90 1019.7
20260506110607 48 266 3.0 11.0 0.00 0.00 0.00 89 1019.7
20260506110020 48 288 3.0 11.0 0.00 0.00 0.00 89 1019.6
20260506105518 48 136 2.0 8.0 0.00 0.00 0.00 90 1019.6
20260506105018 48 226 3.0 10.0 0.00 0.00 0.00 90 1019.7
20260506104525 47 217 4.0 10.0 0.00 0.00 0.00 90 1019.5
20260506104035 47 236 2.0 6.0 0.00 0.00 0.00 90 1019.7
20260506103524 47 242 3.0 9.0 0.00 0.00 0.00 91 1019.7
20260506103024 47 234 3.0 9.0 0.00 0.00 0.00 91 1019.6
20260506102525 47 275 2.0 6.0 0.00 0.00 0.00 91 1019.6
20260506102023 47 251 2.0 6.0 0.00 0.00 0.00 91 1019.6
20260506101539 47 281 1.0 7.0 0.00 0.00 0.00 91 1019.6
20260506101022 47 265 1.0 6.0 0.00 0.00 0.00 91 1019.5
20260506100520 47 228 1.0 10.0 0.00 0.00 0.00 92 1019.5
20260506100018 47 227 2.0 10.0 0.00 0.00 0.00 92 1019.5
20260506095525 46 272 2.0 8.0 0.00 0.00 0.00 92 1019.5
20260506095025 46 240 2.0 6.0 0.00 0.00 0.00 92 1019.6
20260506094524 46 238 1.0 6.0 0.00 0.00 0.00 92 1019.6
20260506094025 46 20 3.0 8.0 0.00 0.00 0.00 92 1019.5
20260506093524 46 243 1.0 8.0 0.00 0.00 0.00 93 1019.2
20260506093022 46 233 1.0 7.0 0.00 0.00 0.00 93 1019.3
20260506092532 46 239 3.0 7.0 0.00 0.00 0.00 93 1019.2
20260506092020 46 180 2.0 7.0 0.00 0.00 0.00 92 1019.3
20260506091518 46 332 1.0 7.0 0.00 0.00 0.00 92 1019.2
20260506091018 46 259 2.0 6.0 0.00 0.00 0.00 92 1019.2
20260506090518 46 174 2.0 6.0 0.00 0.00 0.00 92 1019.1
20260506090018 46 250 2.0 6.0 0.00 0.00 0.00 92 1018.9
20260506085526 46 210 3.0 8.0 0.00 0.00 0.00 92 1018.9
20260506085024 46 249 2.0 8.0 0.00 0.00 0.00 92 1019.0
20260506084535 46 243 2.0 10.0 0.00 0.00 0.00 92 1018.9
20260506084024 46 249 2.0 10.0 0.00 0.00 0.00 92 1018.9
20260506083525 46 270 3.0 8.0 0.00 0.00 0.00 92 1018.8
20260506083024 46 196 2.0 5.0 0.00 0.00 0.00 92 1018.8
20260506082526 46 290 1.0 3.0 0.00 0.00 0.00 92 1018.8
20260506082024 46 76 1.0 6.0 0.00 0.00 0.00 92 1018.8
20260506081523 46 185 0.0 6.0 0.00 0.00 0.00 92 1018.8
20260506081022 46 240 1.0 3.0 0.00 0.00 0.00 92 1018.9
20260506080522 46 250 1.0 3.0 0.00 0.00 0.00 92 1018.8
20260506073523 46 113 2.0 6.0 0.00 0.00 0.00 92 1018.5
20260506073023 46 221 2.0 6.0 0.00 0.00 0.00 92 1018.6
20260506072522 46 293 2.0 6.0 0.00 0.00 0.00 92 1018.5
20260506072022 46 158 2.0 7.0 0.00 0.00 0.00 92 1018.6
20260506071522 46 259 3.0 8.0 0.00 0.00 0.00 92 1018.6
20260506071023 46 37 2.0 8.0 0.00 0.00 0.00 92 1018.6
20260506070522 46 249 2.0 9.0 0.00 0.00 0.00 92 1018.6
20260506062023 45 294 3.0 10.0 0.00 0.00 0.00 91 1018.4
20260506061523 45 132 4.0 10.0 0.00 0.00 0.00 91 1018.3
20260506061022 45 250 4.0 10.0 0.00 0.00 0.00 91 1018.2
20260506060522 45 318 3.0 13.0 0.00 0.00 0.00 91 1018.3
20260506051029 46 231 3.0 8.0 0.00 0.00 0.00 91 1018.4
20260506050518 46 255 2.0 6.0 0.00 0.00 0.00 91 1018.3
20260506045029 46 254 2.0 7.0 0.00 0.00 0.00 91 1018.2
20260506044519 46 279 2.0 7.0 0.00 0.00 0.00 91 1018.3
20260506044019 46 245 2.0 7.0 0.00 0.00 0.00 91 1018.3
20260506043529 46 226 1.0 8.0 0.00 0.00 0.00 91 1018.4
20260506043019 46 241 2.0 8.0 0.00 0.00 0.00 91 1018.3
20260506042519 46 217 2.0 9.0 0.00 0.00 0.00 91 1018.3
20260506042018 46 271 4.0 9.0 0.00 0.00 0.00 90 1018.3
20260506041519 46 254 2.0 9.0 0.00 0.00 0.00 90 1018.3
20260506041018 46 284 2.0 9.0 0.00 0.00 0.00 90 1018.3
20260506040526 46 205 2.0 7.0 0.00 0.00 0.00 90 1018.3
20260506040026 46 238 3.0 10.0 0.00 0.00 0.00 90 1018.3
20260506035525 46 275 3.0 10.0 0.00 0.00 0.00 90 1018.4
20260506035025 46 238 3.0 7.0 0.00 0.00 0.00 90 1018.5
20260506034525 46 131 3.0 8.0 0.00 0.00 0.00 90 1018.4
20260506034036 47 250 3.0 10.0 0.00 0.00 0.00 91 1018.2
20260506033525 46 203 4.0 12.0 0.00 0.00 0.00 91 1018.2
20260506033023 46 288 5.0 12.0 0.00 0.00 0.00 91 1018.3
20260506032523 46 292 2.0 9.0 0.00 0.00 0.00 91 1018.3
20260506032021 45 245 2.0 9.0 0.00 0.00 0.00 91 1018.3
20260506031521 45 34 3.0 9.0 0.00 0.00 0.00 90 1018.4
20260506031021 45 242 2.0 7.0 0.00 0.00 0.00 90 1018.3
20260506030522 45 264 2.0 8.0 0.00 0.00 0.00 90 1018.3
20260506030021 45 217 2.0 8.0 0.00 0.00 0.00 90 1018.2
20260506025531 45 321 2.0 8.0 0.00 0.00 0.00 91 1018.2
20260506025020 46 200 2.0 6.0 0.00 0.00 0.00 90 1018.3
20260506024532 46 160 2.0 9.0 0.00 0.00 0.00 91 1018.2
20260506024020 46 221 2.0 9.0 0.00 0.00 0.00 91 1018.3
20260506023521 46 269 3.0 7.0 0.00 0.00 0.00 91 1018.3
20260506023020 46 255 3.0 10.0 0.00 0.00 0.00 91 1018.2
20260506022521 46 255 3.0 9.0 0.00 0.00 0.00 91 1018.3
20260506022020 46 249 2.0 7.0 0.00 0.00 0.00 91 1018.3
20260506021521 46 218 2.0 8.0 0.00 0.00 0.00 91 1018.4
20260506021020 46 304 3.0 9.0 0.00 0.00 0.00 91 1018.4
20260506020521 46 203 2.0 9.0 0.00 0.00 0.00 92 1018.4
20260506020021 46 42 2.0 10.0 0.00 0.00 0.00 92 1018.4
20260506015521 46 342 2.0 10.0 0.00 0.00 0.00 92 1018.4
20260506015022 45 255 2.0 9.0 0.00 0.00 0.00 92 1018.4
20260506014521 45 257 3.0 9.0 0.00 0.00 0.00 92 1018.3
20260506014020 45 259 4.0 8.0 0.00 0.00 0.00 92 1018.3
20260506013522 45 221 3.0 8.0 0.00 0.00 0.00 93 1018.2
20260506013020 45 97 3.0 6.0 0.00 0.00 0.00 92 1018.3
20260506012520 44 246 2.0 5.0 0.00 0.00 0.00 92 1018.2
20260506012021 44 273 2.0 6.0 0.00 0.00 0.00 92 1018.1
20260506011522 44 143 1.0 6.0 0.00 0.00 0.00 92 1018.1
20260506011022 44 314 2.0 8.0 0.00 0.00 0.00 92 1018.2
20260506010521 44 14 1.0 8.0 0.00 0.00 0.00 92 1018.0
20260506010021 45 263 3.0 7.0 0.00 0.00 0.00 92 1017.9
20260506005522 45 233 2.0 6.0 0.00 0.00 0.00 92 1017.9
20260506005022 45 239 2.0 6.0 0.00 0.00 0.00 92 1017.6
20260506004521 45 256 2.0 7.0 0.00 0.00 0.00 92 1017.4
20260506004020 45 270 2.0 7.0 0.00 0.00 0.00 92 1017.3
20260506003519 45 257 3.0 7.0 0.00 0.00 0.00 92 1017.3
20260506003019 45 198 2.0 9.0 0.00 0.00 0.00 91 1017.3
20260506002519 45 224 3.0 10.0 0.00 0.00 0.00 91 1017.1
20260506002031 45 255 3.0 10.0 0.00 0.00 0.00 92 1017.1
20260506001519 45 226 2.0 8.0 0.00 0.00 0.00 92 1017.0
20260506001020 45 167 2.0 8.0 0.00 0.00 0.00 92 1016.9
20260506000519 45 193 4.0 11.0 0.00 0.00 0.00 92 1016.8
20260506000018 45 225 4.0 10.0 0.00 0.00 0.00 92 1016.7
20260505235531 45 247 4.0 10.0 0.00 0.00 0.00 92 1016.7
20260505235030 45 273 3.0 10.0 0.00 0.00 0.00 92 1016.6
20260505234519 45 221 3.0 10.0 0.00 0.00 0.00 91 1016.5
20260505234019 45 244 4.0 11.0 0.00 0.00 0.00 91 1016.4
20260505233519 45 241 4.0 11.0 0.00 0.00 0.00 91 1016.5
20260505233019 45 264 3.0 8.0 0.00 0.00 0.00 91 1016.2